Location: Unspecified
(0.0000°N, 0.0000°E)
Time: 23:05:14
(UTC+01:00)

Cosmos 1892 Rocket - Visible Passes

Search period start: 22 March 2017 00:00
Search period end: 01 April 2017 01:00
Orbit: 606 x 634 km, 82.5° (Epoch: 21 March)

Date Brightness Start Highest point End Pass type
(mag) Time Alt. Az. Time Alt. Az. Time Alt. Az.
22 Mar 3.8 06:29:37 10° SSW 06:33:45 44° W 06:37:51 10° NNW visible
23 Mar 6.6 05:11:13 10° SE 05:13:44 15° E 05:16:15 10° ENE visible
24 Mar 5.2 05:27:24 10° SSE 05:31:21 34° E 05:35:16 10° NNE visible
25 Mar 3.5 05:44:36 10° S 05:48:57 85° E 05:53:15 10° N visible
26 Mar 3.9 07:02:30 10° SSW 07:06:32 39° W 07:10:34 10° NNW visible
27 Mar 6.2 05:43:44 10° SE 05:46:33 17° E 05:49:21 10° NE visible
27 Mar 4.9 07:21:18 10° SW 07:24:08 17° W 07:26:58 10° NW visible
28 Mar 4.8 06:04:26 38° E 06:04:26 38° E 06:08:09 10° NNE visible
29 Mar 5.0 06:24:03 27° N 06:24:03 27° N 06:26:03 10° N visible
30 Mar 5.9 06:43:06 11° NNW 06:43:06 11° NNW 06:43:16 10° NNW visible
